Red Bluff, CA

8:24 PM PST on December 06, 2019 (GMT -0800)
Red Bluff Municipal

Weather History for KRBL - November, 2019

Change the Weather History Date:

Wednesday, November 13, 2019

  Actual Average Record
Temperature  
Mean Temperature 60 °F -  
Max Temperature 73 °F 63 °F 82 °F (1936)
Min Temperature 48 °F 43 °F 24 °F (1985)
Degree Days  
Heating Degree Days 4    
Growing Degree Days 10 (Base 50)    
Moisture  
Dew Point 40 °F    
Average Humidity 50    
Maximum Humidity 71    
Minimum Humidity 20    
Precipitation  
Precipitation 0.00 in - - ()
Sea Level Pressure  
Sea Level Pressure 29.98 in    
Wind  
Wind Speed 5 mph (NNW)    
Max Wind Speed 8 mph    
Max Gust Speed -    
Visibility 10 miles    
Events      
Averages and records for this station are not official NWS values.
T = Trace of Precipitation, MM = Missing Value Source: NWS Daily Summary

Daily Weather History Graph

Daily Weather History Graph

Search for Another Location

Airport or City:

Astronomy

Nov. 13, 2019 Rise Set
Actual Time 6:52 AM PST 4:54 PM PST
Civil Twilight 6:23 AM PST 5:22 PM PST
Nautical Twilight 5:50 AM PST 5:55 PM PST
Astronomical Twilight 5:18 AM PST 6:27 PM PST
Moon 6:00 PM PST (11/13) 7:51 AM PST (11/13)
Length of Visible Light 10h 59m
Length of Day
10h 02m
Full, 98% of the Moon is Illuminated
Nov 13
Full
Nov 19
Last Quarter
Nov 26
New
Dec 3
First Quarter
Dec 11
Full

Hourly Weather History & Observations

Time (PST) Temp. Dew Point Humidity Pressure Visibility Wind Dir Wind Speed Gust Speed Precip Events Conditions
12:54 AM 54.0 °F 41.0 °F 62% 29.99 in 10.0 mi NW 8.1 mph - N/A   Clear
1:54 AM 54.0 °F 42.1 °F 64% 29.99 in 10.0 mi NNW 6.9 mph - N/A   Clear
2:54 AM 54.0 °F 42.1 °F 64% 29.99 in 10.0 mi NW 5.8 mph - N/A   Clear
3:54 AM 50.0 °F 41.0 °F 71% 29.99 in 10.0 mi North 4.6 mph - N/A   Clear
4:54 AM 48.9 °F 39.9 °F 71% 29.99 in 10.0 mi North 4.6 mph - N/A   Clear
5:54 AM 48.9 °F 39.9 °F 71% 29.99 in 10.0 mi NW 5.8 mph - N/A   Clear
6:54 AM 48.9 °F 39.9 °F 71% 30.01 in 10.0 mi NNW 5.8 mph - N/A   Clear
7:54 AM 51.1 °F 39.9 °F 66% 30.02 in 10.0 mi NNW 4.6 mph - N/A   Clear
8:54 AM 55.9 °F 41.0 °F 57% 30.03 in 10.0 mi North 6.9 mph - N/A   Clear
9:54 AM 62.1 °F 41.0 °F 46% 30.03 in 10.0 mi NNW 5.8 mph - N/A   Clear
10:54 AM 66.9 °F 39.9 °F 37% 30.02 in 10.0 mi NNE 3.5 mph - N/A   Clear
11:54 AM 69.1 °F 37.9 °F 32% 30.00 in 10.0 mi Calm Calm - N/A   Clear
12:54 PM 72.0 °F 39.0 °F 30% 29.98 in 10.0 mi East 3.5 mph - N/A   Clear
1:54 PM 73.0 °F 37.9 °F 28% 29.95 in 10.0 mi Calm Calm - N/A   Clear
2:54 PM 73.0 °F 37.0 °F 27% 29.94 in 10.0 mi Calm Calm - N/A   Clear
3:54 PM 71.1 °F 39.0 °F 31% 29.94 in 10.0 mi ESE 3.5 mph - N/A   Clear
4:54 PM 66.0 °F 41.0 °F 40% 29.94 in 10.0 mi SE 3.5 mph - N/A   Clear
5:54 PM 61.0 °F 39.9 °F 46% 29.94 in 10.0 mi Calm Calm - N/A   Clear
6:54 PM 59.0 °F 41.0 °F 51% 29.95 in 10.0 mi Calm Calm - N/A   Clear
7:54 PM 55.9 °F 41.0 °F 57% 29.95 in 10.0 mi North 3.5 mph - N/A   Clear
8:54 PM 55.0 °F 41.0 °F 59% 29.96 in 10.0 mi WNW 4.6 mph - N/A   Clear
9:54 PM 55.0 °F 39.9 °F 57% 29.96 in 10.0 mi WNW 3.5 mph - N/A   Clear
10:54 PM 53.1 °F 39.9 °F 61% 29.97 in 10.0 mi NNW 3.5 mph - N/A   Clear
11:54 PM 54.0 °F 39.9 °F 59% 29.97 in 10.0 mi North 4.6 mph - N/A   Clear